Iowa Falls, IA

4:52 AM CDT on October 19, 2017 (GMT -0500)
Iowa Falls Municipal

Weather History for KIFA - March, 2013

Change the Weather History Date:

Wednesday, March 13, 2013

  Actual Average Record
Temperature  
Mean Temperature 20 °F -  
Max Temperature 27 °F 40 °F 73 °F (1990)
Min Temperature 14 °F 24 °F -5 °F (1975)
Degree Days  
Heating Degree Days 44    
Moisture  
Dew Point 15 °F    
Average Humidity 81    
Maximum Humidity 88    
Minimum Humidity 71    
Precipitation  
Precipitation 0.00 in - - ()
Sea Level Pressure  
Sea Level Pressure 30.34 in    
Wind  
Wind Speed 13 mph (West)    
Max Wind Speed 20 mph    
Max Gust Speed 26 mph    
Visibility 10 miles    
Events      
Averages and records for this station are not official NWS values.
T = Trace of Precipitation, MM = Missing Value Source: NWS Daily Summary

Daily Weather History Graph

Daily Weather History Graph

Search for Another Location

Airport or City:

Trip Planner

Search our weather history database for the weather conditions in past years. The results will help you decide how hot, cold, wet, or windy it might be!

Date:

Astronomy

Mar. 13, 2013 Rise Set
Actual Time 7:28 AM CDT 7:17 PM CDT
Civil Twilight 7:00 AM CDT 7:45 PM CDT
Nautical Twilight 6:27 AM CDT 8:18 PM CDT
Astronomical Twilight 5:54 AM CDT 8:51 PM CDT
Moon 8:04 AM CDT (3/13) 9:38 PM CDT (3/13)
Length of Visible Light 12h 45m
Length of Day
11h 49m
Waxing Crescent, 4% of the Moon is Illuminated
Mar 13
Waxing Crescent
Mar 19
First Quarter
Mar 27
Full
Apr 2
Last Quarter
Apr 10
New

Hourly Weather History & Observations

Time (CDT) Temp. Windchill Dew Point Humidity Pressure Visibility Wind Dir Wind Speed Gust Speed Precip Events Conditions
12:15 AM 20.3 °F 4.8 °F 14.9 °F 80% 30.20 in 10.0 mi NW 19.6 mph 25.3 mph N/A   Clear
12:55 AM 19.4 °F 4.1 °F 14.5 °F 81% 30.21 in 10.0 mi NW 18.4 mph - N/A   Clear
1:15 AM 19.2 °F 3.4 °F 14.4 °F 81% 30.21 in 10.0 mi NW 19.6 mph 26.5 mph N/A   Clear
1:35 AM 18.5 °F 3.3 °F 14.0 °F 83% 30.22 in 10.0 mi NW 17.3 mph - N/A   Clear
1:55 AM 18.0 °F 3.1 °F 13.5 °F 83% 30.22 in 10.0 mi NW 16.1 mph - N/A   Clear
2:15 AM 17.6 °F 2.2 °F 13.5 °F 84% 30.23 in 10.0 mi NW 17.3 mph 21.9 mph N/A   Clear
2:35 AM 17.6 °F 2.2 °F 13.5 °F 84% 30.24 in 10.0 mi NW 17.3 mph - N/A   Clear
3:15 AM 17.4 °F 2.4 °F 13.1 °F 83% 30.25 in 10.0 mi NW 16.1 mph - N/A   Clear
3:35 AM 17.2 °F 1.7 °F 13.1 °F 84% 30.26 in 10.0 mi NW 17.3 mph - N/A   Clear
4:26 AM 15.8 °F 0.9 °F 12.2 °F 86% 30.27 in 10.0 mi WNW 15.0 mph - N/A   Clear
4:42 AM 15.8 °F 1.4 °F 12.2 °F 86% 30.28 in 10.0 mi NW 13.8 mph - N/A   Clear
4:55 AM 16.2 °F 1.3 °F 12.2 °F 84% 30.28 in 10.0 mi NW 15.0 mph - N/A   Clear
5:15 AM 15.8 °F 0.9 °F 12.0 °F 85% 30.29 in 10.0 mi NW 15.0 mph - N/A   Clear
5:35 AM 15.4 °F 1.0 °F 11.8 °F 86% 30.29 in 10.0 mi NW 13.8 mph - N/A   Clear
5:55 AM 15.4 °F 1.0 °F 11.5 °F 84% 30.30 in 10.0 mi NW 13.8 mph - N/A   Clear
6:15 AM 14.7 °F 0.1 °F 11.1 °F 86% 30.31 in 10.0 mi NW 13.8 mph - N/A   Clear
6:35 AM 14.5 °F 1.9 °F 10.9 °F 86% 30.32 in 10.0 mi WNW 10.4 mph - N/A   Clear
6:55 AM 14.5 °F 1.1 °F 10.9 °F 86% 30.32 in 10.0 mi WNW 11.5 mph - N/A   Clear
7:15 AM 14.5 °F -0.2 °F 10.9 °F 86% 30.32 in 10.0 mi NW 13.8 mph - N/A   Clear
7:35 AM 14.0 °F -0.2 °F 10.4 °F 86% 30.33 in 10.0 mi NW 12.7 mph - N/A   Clear
7:55 AM 14.0 °F 0.5 °F 10.8 °F 87% 30.33 in 10.0 mi NW 11.5 mph - N/A   Clear
8:15 AM 14.0 °F -0.2 °F 10.6 °F 86% 30.34 in 10.0 mi NW 12.7 mph - N/A   Clear
8:35 AM 14.7 °F 0.7 °F 10.9 °F 85% 30.34 in 10.0 mi NW 12.7 mph - N/A   Clear
8:55 AM 15.4 °F 2.3 °F 11.3 °F 84% 30.35 in 10.0 mi WNW 11.5 mph - N/A   Clear
9:15 AM 16.2 °F 3.2 °F 11.7 °F 82% 30.36 in 10.0 mi NW 11.5 mph - N/A   Clear
9:35 AM 17.2 °F 4.5 °F 12.2 °F 81% 30.37 in 10.0 mi NW 11.5 mph - N/A   Clear
9:55 AM 18.0 °F 4.8 °F 12.9 °F 81% 30.38 in 10.0 mi NW 12.7 mph - N/A   Clear
10:15 AM 18.5 °F 5.5 °F 13.3 °F 80% 30.39 in 10.0 mi NW 12.7 mph - N/A   Clear
10:35 AM 19.4 °F 6.0 °F 13.8 °F 79% 30.39 in 10.0 mi NW 13.8 mph - N/A   Clear
10:55 AM 19.9 °F 7.3 °F 14.2 °F 78% 30.40 in 10.0 mi NW 12.7 mph - N/A   Clear
11:15 AM 20.7 °F 7.6 °F 14.7 °F 78% 30.41 in 10.0 mi NW 13.8 mph - N/A   Clear
11:35 AM 21.0 °F 8.1 °F 15.1 °F 78% 30.41 in 10.0 mi NW 13.8 mph - N/A   Clear
11:55 AM 21.6 °F 9.9 °F 15.4 °F 77% 30.41 in 10.0 mi NW 11.5 mph - N/A   Clear
12:15 PM 22.5 °F 12.4 °F 15.6 °F 75% 30.41 in 10.0 mi WNW 9.2 mph - N/A   Clear
12:35 PM 23.4 °F 14.3 °F 16.5 °F 75% 30.41 in 10.0 mi West 8.1 mph - N/A   Clear
12:55 PM 23.7 °F 14.7 °F 16.9 °F 75% 30.42 in 10.0 mi West 8.1 mph - N/A   Clear
1:15 PM 23.9 °F 15.0 °F 17.1 °F 75% 30.41 in 10.0 mi West 8.1 mph - N/A   Clear
1:35 PM 24.6 °F 17.7 °F 17.8 °F 75% 30.41 in 10.0 mi West 5.8 mph - N/A   Clear
1:55 PM 25.3 °F 16.7 °F 18.1 °F 74% 30.41 in 10.0 mi West 8.1 mph - N/A   Clear
2:15 PM 25.2 °F 15.7 °F 18.0 °F 74% 30.40 in 10.0 mi West 9.2 mph - N/A   Clear
2:35 PM 25.5 °F 16.2 °F 18.0 °F 73% 30.39 in 10.0 mi West 9.2 mph - N/A   Clear
2:55 PM 25.5 °F 17.8 °F 18.0 °F 73% 30.39 in 10.0 mi West 6.9 mph - N/A   Clear
3:15 PM 25.7 °F 17.1 °F 18.3 °F 74% 30.39 in 10.0 mi West 8.1 mph - N/A   Clear
3:35 PM 25.7 °F 16.4 °F 17.6 °F 71% 30.39 in 10.0 mi West 9.2 mph - N/A   Clear
3:55 PM 26.1 °F 17.6 °F 18.7 °F 74% 30.38 in 10.0 mi WSW 8.1 mph - N/A   Clear
4:15 PM 26.4 °F 18.0 °F 18.7 °F 73% 30.38 in 10.0 mi West 8.1 mph - N/A   Clear
4:35 PM 26.6 °F 17.5 °F 18.9 °F 73% 30.38 in 10.0 mi West 9.2 mph - N/A   Clear
4:55 PM 26.6 °F 18.2 °F 18.5 °F 71% 30.37 in 10.0 mi West 8.1 mph - N/A   Clear
5:15 PM 27.0 °F 19.5 °F 19.0 °F 72% 30.37 in 10.0 mi West 6.9 mph - N/A   Clear
5:35 PM 26.6 °F 19.1 °F 19.2 °F 74% 30.37 in 10.0 mi West 6.9 mph - N/A   Clear
5:55 PM 26.6 °F 19.1 °F 19.4 °F 74% 30.37 in 10.0 mi West 6.9 mph - N/A   Clear
6:15 PM 26.1 °F 21.9 °F 19.9 °F 78% 30.36 in 10.0 mi WSW 3.5 mph - N/A   Clear
6:35 PM 24.8 °F 17.9 °F 19.2 °F 79% 30.35 in 10.0 mi SW 5.8 mph - N/A   Clear
6:55 PM 24.1 °F 18.2 °F 18.1 °F 78% 30.34 in 10.0 mi SW 4.6 mph - N/A   Clear
7:15 PM 22.8 °F 18.2 °F 17.2 °F 79% 30.34 in 10.0 mi SSW 3.5 mph - N/A   Clear
7:35 PM 21.4 °F 15.1 °F 15.6 °F 78% 30.34 in 10.0 mi SW 4.6 mph - N/A   Clear
7:55 PM 20.3 °F 15.4 °F 15.6 °F 82% 30.35 in 10.0 mi SW 3.5 mph - N/A   Clear
8:15 PM 19.2 °F 12.5 °F 15.3 °F 85% 30.34 in 10.0 mi SSW 4.6 mph - N/A   Clear
8:35 PM 20.5 °F 14.0 °F 16.0 °F 83% 30.33 in 10.0 mi South 4.6 mph - N/A   Clear
8:55 PM 19.4 °F 12.8 °F 15.4 °F 85% 30.33 in 10.0 mi SSW 4.6 mph - N/A   Clear
9:15 PM 19.2 °F 12.5 °F 15.6 °F 86% 30.33 in 10.0 mi SSW 4.6 mph - N/A   Clear
9:35 PM 19.8 °F 14.7 °F 15.8 °F 85% 30.33 in 10.0 mi South 3.5 mph - N/A   Clear
9:55 PM 18.3 °F 10.2 °F 14.5 °F 85% 30.33 in 10.0 mi South 5.8 mph - N/A   Clear
10:15 PM 18.5 °F 11.7 °F 15.3 °F 87% 30.32 in 10.0 mi South 4.6 mph - N/A   Clear
10:35 PM 19.2 °F 12.5 °F 15.8 °F 87% 30.31 in 10.0 mi SSE 4.6 mph - N/A   Clear
10:55 PM 19.4 °F 12.8 °F 16.3 °F 88% 30.31 in 10.0 mi SSE 4.6 mph - N/A   Clear
11:15 PM 20.1 °F 12.3 °F 16.7 °F 87% 30.31 in 10.0 mi SSE 5.8 mph - N/A   Clear
11:35 PM 20.7 °F 14.2 °F 17.1 °F 86% 30.31 in 10.0 mi SSE 4.6 mph - N/A   Clear
11:55 PM 20.3 °F 12.5 °F 16.7 °F 86% 30.30 in 10.0 mi SSE 5.8 mph - N/A   Clear